Weather History for CWZG - October, 2011

Change the Weather History Date:

Wednesday, October 5, 2011

  Actual Average Record
Temperature  
Mean Temperature 41 °F -  
Max Temperature 51 °F - - ()
Min Temperature 31 °F - - ()
Degree Days  
Heating Degree Days 24    
Moisture  
Dew Point 35 °F    
Average Humidity 77    
Maximum Humidity 100    
Minimum Humidity 46    
Precipitation  
Precipitation 0.03 in - - ()
Sea Level Pressure  
Sea Level Pressure 29.68 in    
Wind  
Wind Speed 3 mph ()    
Max Wind Speed 8 mph    
Max Gust Speed -    
T = Trace of Precipitation, MM = Missing Value Source: Averaged Metar Reports

Daily Weather History Graph

Daily Weather History Graph

Search for Another Location

Airport or City:

Trip Planner

Search our weather history database for the weather conditions in past years. The results will help you decide how hot, cold, wet, or windy it might be!

Date:

Astronomy

Oct. 05, 2011 Rise Set
Actual Time 7:49 AM MDT 7:11 PM MDT
Civil Twilight 7:15 AM MDT 7:44 PM MDT
Nautical Twilight 6:37 AM MDT 8:22 PM MDT
Astronomical Twilight 5:58 AM MDT 9:01 PM MDT
Moon 4:29 PM MDT (10/5) 12:59 AM MDT (10/5)
Length of Visible Light 12h 28m
Length of Day
11h 22m
Waxing Gibbous, 67% of the Moon is Illuminated
Oct 5
Waxing Gibbous
Oct 11
Full
Oct 19
Last Quarter
Oct 26
New
Nov 2
First Quarter

Hourly Weather History & Observations

Time (MDT) Temp. Windchill Dew Point Humidity Pressure Visibility Wind Dir Wind Speed Gust Speed Precip Events Conditions
12:00 AM 42.4 °F 40.7 °F 36.3 °F 79% 29.62 in - WSW 3.5 mph - N/A   Unknown
2:00 AM 39.2 °F 37.0 °F 35.6 °F 87% 29.63 in - SW 3.5 mph - N/A   Unknown
4:00 AM 35.6 °F 32.8 °F 32.9 °F 90% 29.65 in - SW 3.5 mph - N/A   Unknown
5:00 AM 31.8 °F - 29.3 °F 90% 29.68 in - ENE 2.3 mph - N/A   Unknown
7:00 AM 31.3 °F - 31.3 °F 100% 29.70 in - WSW 1.2 mph - N/A   Unknown
8:00 AM 33.1 °F 30.0 °F 31.8 °F 95% 29.70 in - SW 3.5 mph - N/A   Unknown
9:00 AM 31.6 °F - 30.4 °F 95% 29.73 in - North 1.2 mph - N/A   Unknown
10:00 AM 40.3 °F - 31.1 °F 70% 29.70 in - SSE 1.2 mph - N/A   Unknown
11:00 AM 44.2 °F - 31.3 °F 60% 29.68 in - SW 2.3 mph - N/A   Unknown
1:00 PM 51.8 °F - 31.5 °F 46% 29.62 in - ESE 4.6 mph - N/A   Unknown
2:00 PM 51.6 °F - 33.4 °F 50% 29.63 in - East 6.9 mph - N/A   Unknown
3:00 PM 51.3 °F - 31.3 °F 46% 29.62 in - ENE 8.1 mph - N/A   Unknown
5:00 PM 50.4 °F - 34.2 °F 54% 29.65 in - East 6.9 mph - N/A   Unknown
6:00 PM 47.1 °F - 37.2 °F 68% 29.68 in - NNE 4.6 mph - N/A   Unknown
7:00 PM 44.4 °F 42.9 °F 40.1 °F 85% 29.70 in - NE 3.5 mph - 0.02 in   Unknown
8:00 PM 43.5 °F 41.9 °F 39.9 °F 87% 29.73 in - East 3.5 mph - N/A   Unknown
9:00 PM 43.2 °F 41.5 °F 40.1 °F 89% 29.73 in - NE 3.5 mph - 0.01 in   Unknown
10:00 PM 43.2 °F 41.5 °F 39.6 °F 87% 29.73 in - NE 3.5 mph - N/A   Unknown
11:00 PM 41.9 °F - 38.8 °F 89% 29.72 in - ENE 2.3 mph - N/A   Unknown